This demonstration page uses our WeatherBlox Daily Observations layout. Learn more.

Left ArrowRight Arrow

39.51506, -84.39828

Hourly Observations for May 27, 2016

Temp ( °F °C ) Dew Point ( °F °C ) Humidity (%) Winds ( mph kmh ) Pressure ( in mb ) Visibility ( mi km ) Precip ( " mm )
12:15 am 00:15 Clear 69 20.8 62 16.5 77 77 N N/A 30.00 1016 10 16 N/A
12:35 am 00:35 Clear 69 20.3 61 15.9 76 76 N N/A 30.00 1016 10 16 N/A
12:55 am 00:55 Clear 63 17.2 57 13.8 81 81 N N/A 30.00 1016 10 16 N/A
1:15 am 01:15 Clear 64 17.9 58 14.6 81 81 N N/A 30.00 1016 10 16 N/A
1:35 am 01:35 Clear 64 18 59 14.8 82 82 N N/A 30.00 1016 10 16 N/A
1:55 am 01:55 Clear 63 17 57 13.8 82 82 N N/A 30.00 1016 10 16 N/A
2:15 am 02:15 Clear 66 18.7 60 15.7 83 83 S 6 9 30.00 1016 10 16 N/A
2:35 am 02:35 Clear 67 19.5 61 16 80 80 S 6 9 30.00 1016 10 16 N/A
2:55 am 02:55 Clear 67 19.5 60 15.8 79 79 S 3 6 30.00 1016 10 16 N/A
3:15 am 03:15 Clear 67 19.5 61 15.9 80 80 SSW 6 9 30.00 1016 10 16 N/A
3:35 am 03:35 Clear 64 18 58 14.6 81 81 N N/A 30.00 1016 10 16 N/A
3:55 am 03:55 Clear 63 17.2 57 14 82 82 S 3 6 30.00 1016 10 16 N/A
4:15 am 04:15 Partly Cloudy 62 16.6 56 13.6 83 83 N N/A 30.00 1016 10 16 N/A
4:35 am 04:35 Partly Cloudy 62 16.7 57 13.7 83 83 SSW 3 6 30.00 1016 10 16 N/A
4:55 am 04:55 Mostly Cloudy with Haze 62 16.6 56 13.6 83 83 N N/A 30.00 1016 5 8 N/A
5:15 am 05:15 Partly Cloudy 62 16.6 57 13.7 83 83 SW 3 6 30.00 1016 7 11 N/A
5:35 am 05:35 Clear 62 16.6 57 13.7 83 83 SW 3 6 30.00 1016 7 11 N/A
5:55 am 05:55 Clear 62 16.6 57 13.7 83 83 SSW 3 6 30.00 1016 10 16 N/A
6:15 am 06:15 Sunny 62 16.6 57 13.7 83 83 N N/A 30.00 1016 10 16 N/A
6:35 am 06:35 Sunny 62 16.6 57 13.7 83 83 N N/A 30.00 1016 7 11 N/A
6:55 am 06:55 Hazy 62 16.6 57 13.7 83 83 N N/A 30.03 1017 5 8 N/A
7:15 am 07:15 Hazy 63 17.3 58 14.5 84 84 N N/A 30.03 1017 5 8 N/A
7:35 am 07:35 Hazy 64 18 59 15.2 84 84 N N/A 30.03 1017 5 8 N/A
7:55 am 07:55 Sunny 67 19.7 62 16.7 83 83 S 5 7 30.03 1017 10 16 N/A
8:15 am 08:15 Sunny 69 20.8 62 16.9 78 78 S 8 13 30.03 1017 10 16 N/A
8:35 am 08:35 Sunny 69 20.8 61 16.2 75 75 S 6 9 30.03 1017 10 16 N/A
8:55 am 08:55 Sunny 71 21.4 62 16.4 73 73 SW 3 6 30.03 1017 10 16 N/A
9:15 am 09:15 Sunny 74 23.6 64 17.9 70 70 SSW 5 7 30.03 1017 10 16 N/A
9:35 am 09:35 Sunny 74 23.6 63 17.2 67 67 S 5 7 30.03 1017 10 16 N/A
9:55 am 09:55 Sunny 74 23.6 62 16.9 66 66 S 6 9 30.03 1017 10 16 N/A
10:15 am 10:15 Sunny 74 23.6 61 16.2 63 63 N N/A 30.03 1017 10 16 N/A
10:35 am 10:35 Sunny 77 25.1 63 17.1 61 61 SW 3 6 30.00 1016 10 16 N/A
10:55 am 10:55 Sunny 77 25.1 62 16.7 60 60 S 3 6 30.00 1016 10 16 N/A
11:15 am 11:15 Sunny 80 26.5 64 17.7 59 59 SSW 6 9 30.00 1016 10 16 N/A
11:35 am 11:35 Sunny 80 26.5 62 16.7 55 55 SSW 9 15 30.03 1017 10 16 N/A
11:55 am 11:55 Sunny 80 26.5 63 17 56 56 S 9 15 30.03 1017 10 16 N/A
12:15 pm 12:15 Sunny 81 27.2 63 17.3 55 55 S 6 9 30.00 1016 10 16 N/A
12:35 pm 12:35 Sunny 82 27.5 62 16.6 51 51 SW 6 9 30.00 1016 10 16 N/A
12:55 pm 12:55 Sunny 82 28 61 16.3 49 49 S 7 11 30.00 1016 10 16 N/A
1:15 pm 13:15 Sunny 84 28.7 60 15.4 44 44 SSW 8 13 29.97 1015 10 16 N/A
1:35 pm 13:35 Sunny 86 30.1 59 15.2 40 40 SSW 9 15 29.97 1015 10 16 N/A
1:55 pm 13:55 Sunny 87 30.7 59 15.1 39 39 SSW 10 17 29.97 1015 10 16 N/A
2:15 pm 14:15 Sunny 88 31 58 14.2 36 36 S 5 7 29.97 1015 10 16 N/A
2:35 pm 14:35 Sunny 90 32.1 61 16.3 39 39 WSW 10 17 29.94 1014 10 16 N/A
2:55 pm 14:55 Sunny 90 32.1 61 16.2 38 38 SSW 12 19 29.94 1014 10 16 N/A
3:15 pm 15:15 Partly Cloudy 85 29.2 59 15 42 42 S 8 13 29.94 1014 10 16 N/A
3:35 pm 15:35 Partly Cloudy 88 31 62 16.5 42 42 S 8 13 29.94 1014 10 16 N/A
3:55 pm 15:55 Partly Cloudy 85 29.3 60 15.3 43 43 SSE 7 11 29.94 1014 10 16 N/A
4:15 pm 16:15 Partly Cloudy 87 30.7 60 15.7 40 40 S 10 17 29.94 1014 10 16 N/A
4:35 pm 16:35 Sunny 90 32.1 58 14.7 35 35 SSW 13 20 29.94 1014 10 16 N/A
4:55 pm 16:55 Sunny 90 32.1 58 14.2 34 34 S 9 15 29.94 1014 10 16 N/A
5:15 pm 17:15 Partly Cloudy 89 31.9 57 14 34 34 SSE 9 15 29.94 1014 10 16 N/A
5:35 pm 17:35 Partly Cloudy 87 30.6 57 13.8 36 36 S 7 11 29.94 1014 10 16 N/A
5:55 pm 17:55 Partly Cloudy 87 30.7 58 14.2 37 37 SSW 12 19 29.91 1013 10 16 N/A
6:15 pm 18:15 Partly Cloudy 85 29.6 56 13.4 37 37 S 9 15 29.91 1013 10 16 N/A
6:35 pm 18:35 Sunny 84 28.7 55 12.6 37 37 S 10 17 29.91 1013 10 16 N/A
6:55 pm 18:55 Sunny 84 29 56 13.1 38 38 SSW 8 13 29.91 1013 10 16 N/A
7:15 pm 19:15 Sunny 84 28.9 57 14 40 40 S 9 15 29.91 1013 10 16 N/A
7:35 pm 19:35 Sunny 84 28.7 56 13.1 38 38 S 8 13 29.91 1013 10 16 N/A
7:55 pm 19:55 Sunny 83 28.2 56 13.1 39 39 S 9 15 29.91 1013 10 16 N/A
8:15 pm 20:15 Sunny 82 28 57 14 42 42 S 5 7 29.91 1013 10 16 N/A
8:35 pm 20:35 Sunny 82 27.5 57 14.1 44 44 S 7 11 29.97 1015 10 16 N/A
8:55 pm 20:55 Sunny 81 27.2 58 14.2 45 45 S 5 7 29.97 1015 10 16 N/A
9:15 pm 21:15 Clear 81 27.1 58 14.3 45 45 S 6 9 29.97 1015 10 16 N/A
9:35 pm 21:35 Clear 80 26.5 58 14.2 47 47 SE 5 7 29.97 1015 10 16 N/A
9:55 pm 21:55 Clear 80 26.5 59 14.8 49 49 S 5 7 29.97 1015 10 16 N/A
10:15 pm 22:15 Clear 80 26.5 59 15.2 50 50 S 3 6 29.97 1015 10 16 N/A
10:35 pm 22:35 Clear 74 23.6 62 16.7 65 65 N N/A 30.00 1016 10 16 N/A
10:55 pm 22:55 Clear 72 22.2 64 17.5 75 75 N N/A 30.00 1016 10 16 N/A
11:15 pm 23:15 Clear 70 21.2 62 16.5 75 75 N N/A 30.00 1016 7 11 N/A
11:35 pm 23:35 Clear 69 20.8 62 16.5 77 77 N N/A 30.00 1016 7 11 N/A
11:55 pm 23:55 Hazy 69 20.8 62 16.9 78 78 N N/A 30.00 1016 4 6 N/A

Powered by AerisWeather